sat.trackr.live / text

‹ back to catalog

ZHANGHENG 1-02 (CSES-2)

NORAD 64393 · 2025-128A

PAYLOAD ACTIVE UNKNOWN

§ Identity

Operator
Country
PRC
Launch date
2025-06-14
Launch site
JSC
Launch vehicle
Mass (kg)
RCS (m²)

External: N2YO · Heavens-Above · Gunter

§ Orbital elements

Epoch: 2026-09-22T06:55:52.485024Z

Period
94.67 min
Inclination
97.3707°
Eccentricity
0.0007045
Mean motion
15.21135875 rev/d
Perigee alt
497.6 km
Apogee alt
507.3 km
Semi-major
6,880.6 km
B*
8.5189e-6
RAAN
29.9000°
Arg perigee
114.1947°
Mean anomaly
246.0026°
Rev number
7,069

§ Raw data

ZHANGHENG 1-02 (CSES-2)1 64393U 25128A   26265.28880191  .00000122  00000+0  85189-5 0  99912 64393  97.3707  29.9000 0007045 114.1947 246.0026 15.21135875 70693

JSON: /api/v1/satellites/64393 · /tle

For live sub-satellite position, see the globe view (requires WebGL).

§ Visibility from observer

Set your observer location to see the next 7 days of passes ≥ 10°. The values pass through the URL so the page stays shareable.

No JS? Fill the form by hand. The geolocation button needs JavaScript.

§ Radio — SatNOGS DB

ModeDescriptionDownlinkUplink
FM S-band telemetry 2.229 GHz

1 transmitter · refreshed weekly from db.satnogs.org